Hourly Data Report for July 11, 2016

OTTAWA INTL A
ONTARIO

45°19'00.000" N
75°40'00.000" W
114.90 m
6106001
71628
YOW

Download Data

Hourly Data (July 2016)
Hourly Data Report for July 11, 2016
TIME
LST
Temp Definition
°C
Dew Point Definition
°C
Rel Hum Definition
%
Precip. Amount Definition
mm

Wind Dir Definition
10's deg

Wind Spd Definition
km/h
Visibility Definition
km
Stn Press Definition
kPa
Hmdx Definition


Wind Chill Definition


Weather Definition


00:00 13.9 13.4 97   17 5 24.1 100.39     LegendNANA
01:00 12.4 12.1 98   16 5 24.1 100.40     Clear
02:00 12.6 12.5 99   36 1 24.1 100.47     LegendNANA
03:00 12.1 11.8 98   21 6 12.9 100.54     LegendNANA
04:00 12.7 12.6 99   26 5 16.1 100.59     Mainly Clear
05:00 11.9 11.8 99   23 4 16.1 100.62     LegendNANA
06:00 14.4 14.3 99   20 3 24.1 100.64     LegendNANA
07:00 17.6 16.0 90   28 4 24.1 100.64     Mostly Cloudy
08:00 20.2 16.1 77   23 8 24.1 100.63 25   LegendNANA
09:00 22.2 15.7 66   26 8 24.1 100.59 27   LegendNANA
10:00 23.4 15.3 60   29 4 24.1 100.54 28   Cloudy
11:00 25.2 15.1 53   26 10 24.1 100.60 29   LegendNANA
12:00 25.7 13.7 47   23 7 24.1 100.58 29   LegendNANA
13:00 27.2 14.8 46   21 12 24.1 100.56 31   Mainly Clear
14:00 26.9 14.5 46   22 9 24.1 100.54 31   LegendNANA
15:00 27.3 12.8 40   24 7 24.1 100.49 30   LegendNANA
16:00 27.6 14.8 45   20 16 24.1 100.46 31   Mostly Cloudy
17:00 27.5 15.1 46   21 15 24.1 100.46 32   LegendNANA
18:00 26.6 14.6 47   17 13 24.1 100.42 30   LegendNANA
19:00 24.6 15.7 57   19 5 24.1 100.39 29   Mainly Clear
20:00 22.6 15.3 63   20 7 24.1 100.40 27   LegendNANA
21:00 20.0 14.4 70   17 8 24.1 100.42     LegendNANA
22:00 19.8 13.6 67   18 9 24.1 100.41     Clear
23:00 19.0 13.9 72   22 10 24.1 100.41     LegendNANA

Notes on Data Quality.

Legend

  • E = Estimated
  • M = Missing
  • NA = Not Available*
  • [empty] = Indicates an unobserved value
Date modified: